Regional Weather Roundup
Issued by NWS Northern Indiana

Home | Current Version | Previous Version | Text Only | Print | Product List | Glossary Off
Versions: 1 2 3 4 5 6 7 8 9 10 11 12 13 14 15 16 17 18 19 20 21 22 23 24 25 26 27 28 29 30 31 32 33 34 35 36 37 38 39 40 41 42 43 44 45 46 47 48 49 50

000
ASUS43 KIWX 191900
RWRIWX

KIWX WEATHER ROUNDUP
NATIONAL WEATHER SERVICE NORTHERN INDIANA
200 PM EST FRI DEC 19 2014

NOTE: "FAIR" INDICATES FEW OR NO CLOUDS BELOW 12,000 FEET WITH NO
SIGNIFICANT WEATHER AND/OR OBSTRUCTIONS TO VISIBILITY.

* THESE STATIONS ARE NOT UNDER NWS QUALITY CONTROL. THEY ALSO MAY NOT
  REPORT WEATHER SUCH AS PRECIPITATION OR FOG.

INZ001>027-192000-
NORTHERN INDIANA

CITY           SKY/WX    TMP DP  RH WIND       PRES   REMARKS
GARY*          CLOUDY    34  19  55 VRB3      30.29F
SOUTH BEND     CLOUDY    35  25  66 NW6       30.25F WCI  30
ELKHART*       PTSUNNY   34  18  51 N8        30.25F WCI  27
GOSHEN         PTSUNNY   35  21  56 NW12      30.23F WCI  27
ANGOLA*        CLOUDY    28  16  59 CALM      30.23F
FORT WAYNE     PTSUNNY   31  22  69 NW7       30.24F WCI  24
PERU/GRISSOM   CLOUDY    30  30 100 NW5       30.25S WCI  25

$$
INZ028>050-192000-
CENTRAL INDIANA

CITY           SKY/WX    TMP DP  RH WIND       PRES   REMARKS
LAFAYETTE      CLOUDY    28  25  88 W3        30.28F
KOKOMO*        CLOUDY    28  25  86 W6        30.26S WCI  22
MUNCIE*        CLOUDY    29  23  78 W5        30.26R WCI  24
INDIANAPOLIS   CLOUDY    28  22  78 W3        30.26F

$$
MIZ043>046-050>051-056>058-064>065-071>073-077>080-192000-
SOUTHWEST LOWER MICHIGAN

CITY           SKY/WX    TMP DP  RH WIND       PRES   REMARKS
BATTLE CREEK   CLOUDY    30  21  69 CALM      30.24F
BENTON HARBOR  CLOUDY    32  25  75 N6        30.26F WCI  26
COLDWATER*     CLOUDY    29  26  90 MISG      30.23F FOG
HILLSDALE*     CLOUDY    29  24  79 CALM      30.21F
HOLLAND        MOSUNNY   34  21  59 E5        30.26F WCI  30
GRAND RAPIDS   MOSUNNY   31  19  61 CALM      30.25F
KALAMAZOO      MOSUNNY   31  20  63 CALM      30.24F
STURGIS*       CLOUDY    30  23  74 CALM      30.22F
THREE RIVERS*  FAIR      33  19  55 CALM      30.24F

$$
OHZ001>008-015>018-024>025-192000-
NORTHWEST OHIO

CITY           SKY/WX    TMP DP  RH WIND       PRES   REMARKS
DEFIANCE       CLOUDY    31  22  69 CALM      30.24F
FINDLAY        CLOUDY    31  25  78 W6        30.23F WCI  25
TOLEDO EXPRESS CLOUDY    30  25  81 N3        30.24F
TOLEDO METCALF CLOUDY    30  24  78 NE3       30.26F
LIMA           CLOUDY    32  24  72 CALM      30.23F

$$
AND FOR LAKE MICHIGAN COASTAL AND OPEN LAKE BUOY OBSERVATIONS

STATION/POSITION TEMP    WIND        PRES    VSBY  WAVE
                 AIR SEA DIR/SP/G                  HT/PER
                 (F)     (DEG/KT/KT) (MB)    (MI)  (FT/S)
CALUMET HARBOR    32     200/  4/  7 1023.9F
SAINT JOSEPH      32     340/  3/  7 1025.1F

$$
&&



USA.gov is the U.S. government's official web portal to all federal, state and local government web resources and services.